Location: Little Baddow
(51.7333°N, 0.5667°E)
Time: 12:15:31
(UTC+00:00)

Cosmos 1802 Rocket - Pass Details

Date: 08 November 2025
Orbit: 953 x 1011 km, 82.9° (Epoch: 09 December)

Event Time Altitude Azimuth Distance (km) Brightness Sun altitude
Rises 05:01:46 0° 348° (NNW) 3,748 6.9 -19.1°
Reaches altitude 10° 05:04:21 10° 346° (NNW) 2,788 6.2 -18.7°
Maximum altitude 05:10:41 67° 266° (W) 1,077 4.0 -17.7°
Drops below altitude 10° 05:16:53 10° 185° (S) 2,732 6.4 -16.8°
Sets 05:19:23 0° 183° (S) 3,667 7.1 -16.4°
